Flag Weather past 2 weeks in Winnipeg, Manitoba, Canada

Now
34 °F

Chilly.


Feels Like: 28 °F
Forecast: 28 / 36 °F
Wind: 8 mph from North

Location: Winnipeg The Forks

Current Time: Oct 30, 2014 at 12:51:34 PM

Latest Report: Oct 30, 2014 at 12:00 PM


Visibility: N/A

Pressure: 30.36 "Hg

Humidity: 69%

Dew point: 25 °F

Location of WinnipegLocation

Historic Weather in Winnipeg — Graph

°F

Winnipeg temperature yesterday

Maximum temperature yesterday: 38 °F (at 4:00 PM)
Minimum temperature yesterday: 33 °F (at 10:00 AM)
Average temperature yesterday: 36 °F

Past Weeks' High & Low Weather Summary

 TemperatureHumidityPressure
High68 °F (Oct 15, 3:00 PM)89% (Oct 22, 8:00 PM)30.34 "Hg (Oct 22, 8:00 PM)
Low33 °F (Oct 29, 10:00 AM)28% (Oct 24, 4:00 PM)29.45 "Hg (Oct 27, 1:00 AM)
Average47 °F68%29.86 "Hg
* Reported Oct 15 11:00 AM — Oct 30 11:00 AM, Winnipeg, Weather by CustomWeather, © 2014

Note: Actual official high and low records may vary slightly from our data, if they occured in-between our weather recording intervals... More about our weather records

Advertising

Winnipeg weather history for previous 24 hours

 ConditionsComfort  
Time TempWeatherWind HumidityBarometerVisibility
11:00 AM
Oct 30
34 °FChilly.10 mph67%30.34 "HgN/A
10:00 AM34 °FChilly.10 mph73%30.31 "HgN/A
9:00 AM34 °FChilly.7 mph79%30.27 "HgN/A
8:00 AM35 °FChilly.7 mph76%30.23 "HgN/A
7:00 AM36 °FChilly.7 mph80%30.20 "HgN/A
6:00 AM36 °FChilly.5 mph89%30.18 "HgN/A
5:00 AM35 °FChilly.3 mph87%30.15 "HgN/A
4:00 AM36 °FChilly.1 mph85%30.13 "HgN/A
3:00 AM36 °FChilly.2 mph87%30.11 "HgN/A
2:00 AM36 °FChilly.1 mph85%30.10 "HgN/A
1:00 AM36 °FChilly.1 mph85%30.08 "HgN/A
12:00 AM36 °FChilly.3 mph82%30.06 "HgN/A
11:00 PM
Oct 29
37 °FChilly.2 mph84%30.07 "HgN/A
10:00 PM37 °FChilly.2 mph85%30.06 "HgN/A
9:00 PM37 °FChilly.2 mph79%30.05 "HgN/A
8:00 PM37 °FChilly.1 mph74%30.05 "HgN/A
7:00 PM38 °FChilly.1 mph73%30.04 "HgN/A
6:00 PM38 °FChilly.2 mph71%30.04 "HgN/A
5:00 PM36 °FChilly.1 mph77%30.04 "HgN/A
4:00 PM38 °FChilly.1 mph71%30.04 "HgN/A
3:00 PM37 °FChilly.5 mph73%30.06 "HgN/A
2:00 PM37 °FChilly.5 mph74%30.08 "HgN/A
1:00 PM37 °FChilly.3 mph85%30.09 "HgN/A
12:00 PM36 °FChilly.3 mph78%30.10 "HgN/A
Weather by CustomWeather, © 2014

See weather overviewHow to use our weather pages